Date,TemperatureHighF,TemperatureAvgF,TemperatureLowF,DewpointHighF,DewpointAvgF,DewpointLowF,HumidityHigh,HumidityAvg,HumidityLow,PressureMaxIn,PressureMinIn,WindSpeedMaxMPH,WindSpeedAvgMPH,GustSpeedMaxMPH,PrecipitationSumIn
2013-9-1,98,83,72,-100,-100,-100,0,0,100,0.00,40.00,0,-999,0,0.00
2013-9-2,96,83,73,-100,-100,-100,0,0,100,0.00,40.00,0,-999,0,0.00
2013-9-3,98,81,70,-100,-100,-100,0,0,100,0.00,40.00,0,-999,0,0.00
2013-9-4,94,81,74,-100,-100,-100,0,0,100,0.00,40.00,0,-999,0,0.00
2013-9-5,94,80,70,-100,-100,-100,0,0,100,0.00,40.00,0,-999,0,0.00
2013-9-6,96,81,72,-100,-100,-100,0,0,100,0.00,40.00,0,-999,0,0.00
2013-9-7,94,79,72,-100,-100,-100,0,0,100,0.00,40.00,0,-999,0,0.00
2013-9-8,85,76,71,-100,-100,-100,0,0,100,0.00,40.00,0,-999,0,0.00
2013-9-9,91,77,69,-100,-100,-100,0,0,100,0.00,40.00,0,-999,0,0.00
2013-9-10,88,76,69,-100,-100,-100,0,0,100,0.00,40.00,0,-999,0,0.00
2013-9-11,93,79,72,-100,-100,-100,0,0,100,0.00,40.00,0,-999,0,0.00
2013-9-12,93,78,69,-100,-100,-100,0,0,100,0.00,40.00,0,-999,0,0.00
2013-9-13,94,80,70,-100,-100,-100,0,0,100,0.00,40.00,0,-999,0,0.00
2013-9-14,94,80,68,-100,-100,-100,0,0,100,0.00,40.00,0,-999,0,0.00
2013-9-15,91,77,71,-100,-100,-100,0,0,100,0.00,40.00,0,-999,0,0.00
2013-9-16,83,75,73,-100,-100,-100,0,0,100,0.00,40.00,0,-999,0,0.00
2013-9-17,87,78,71,-100,-100,-100,0,0,100,0.00,40.00,0,-999,0,0.00
2013-9-18,76,73,70,-100,-100,-100,0,0,100,0.00,40.00,0,-999,0,0.00
2013-9-19,92,79,72,-100,-100,-100,0,0,100,0.00,40.00,0,-999,0,0.00
2013-9-20,78,74,69,-100,-100,-100,0,0,100,0.00,40.00,0,-999,0,0.00
2013-9-21,80,71,63,-100,-100,-100,0,0,100,0.00,40.00,0,-999,0,0.00
2013-9-22,81,66,61,-100,-100,-100,0,0,100,0.00,40.00,0,-999,0,0.00
2013-9-23,87,69,55,-100,-100,-100,0,0,100,0.00,40.00,0,-999,0,0.00
2013-9-24,91,74,62,-100,-100,-100,0,0,100,0.00,40.00,0,-999,0,0.00
2013-9-25,94,76,65,-100,-100,-100,0,0,100,0.00,40.00,0,-999,0,0.00
2013-9-26,89,75,63,-100,-100,-100,0,0,100,0.00,40.00,0,-999,0,0.00
2013-9-27,85,78,73,-100,-100,-100,0,0,100,0.00,40.00,0,-999,0,0.00
2013-9-28,89,78,75,-100,-100,-100,0,0,100,0.00,40.00,0,-999,0,0.00
2013-9-29,74,71,65,-100,-100,-100,0,0,100,0.00,40.00,0,-999,0,0.00
2013-9-30,87,71,62,-100,-100,-100,0,0,100,0.00,40.00,0,-999,0,0.00